Taylorville, IL

6:42 AM CST on December 08, 2016 (GMT -0600)
Taylorville Municipal

Weather History for KTAZ - November, 2013

Change the Weather History Date:

Monday, November 4, 2013

  Actual Average (KSPI) Record (KSPI)
Temperature  
Mean Temperature 48 °F 48 °F  
Max Temperature 55 °F 58 °F 82 °F (1978)
Min Temperature 42 °F 39 °F 11 °F (1991)
Degree Days  
Heating Degree Days 16 17  
Month to date heating degree days 64  
Since 1 July heating degree days 474  
Cooling Degree Days 0 0  
Month to date cooling degree days 0  
Year to date cooling degree days 1121  
Moisture  
Dew Point 39 °F    
Average Humidity 67    
Maximum Humidity 82    
Minimum Humidity 51    
Precipitation  
Precipitation 0.00 in 0.10 in 2.39 in (1935)
Month to date precipitation 0.41  
Year to date precipitation 32.11  
Snow  
Snow 0.00 in 0.00 in T in (1991)
Month to date snowfall 0.0  
Since 1 July snowfall T  
Since 1 September snowfall T  
Snow Depth -    
Sea Level Pressure  
Sea Level Pressure 30.19 in    
Wind  
Wind Speed 13 mph (SSE)    
Max Wind Speed 20 mph    
Max Gust Speed 29 mph    
Visibility 10 miles    
Events      
T = Trace of Precipitation, MM = Missing Value Source: NWS Daily Summary

Daily Weather History Graph

Daily Weather History Graph

Search for Another Location

Airport or City:

Trip Planner

Search our weather history database for the weather conditions in past years. The results will help you decide how hot, cold, wet, or windy it might be!

Date:

Astronomy

Nov. 04, 2013 Rise Set
Actual Time 6:29 AM CST 4:52 PM CST
Civil Twilight 6:01 AM CST 5:20 PM CST
Nautical Twilight 5:29 AM CST 5:52 PM CST
Astronomical Twilight 4:57 AM CST 6:23 PM CST
Moon 7:39 AM CST (11/4) 5:57 PM CST (11/4)
Length of Visible Light 11h 18m
Length of Day
10h 22m
New Moon, 2% of the Moon is Illuminated
Nov 4
New Moon
Nov 9
First Quarter
Nov 17
Full
Nov 25
Last Quarter
Dec 2
New

Hourly Weather History & Observations

Time (CST) Temp. Windchill Dew Point Humidity Pressure Visibility Wind Dir Wind Speed Gust Speed Precip Events Conditions
12:15 AM 44.6 °F 38.1 °F 33.8 °F 66% 30.19 in 10.0 mi SE 13.8 mph 17.3 mph N/A   Clear
12:35 AM 44.6 °F 38.8 °F 33.8 °F 66% 30.20 in 10.0 mi SE 11.5 mph - N/A   Clear
12:55 AM 44.6 °F 38.8 °F 33.8 °F 66% 30.19 in 10.0 mi SE 11.5 mph - N/A   Clear
1:15 AM 44.6 °F 38.1 °F 33.8 °F 66% 30.20 in 10.0 mi SSE 13.8 mph - N/A   Clear
1:35 AM 44.6 °F 39.2 °F 33.8 °F 66% 30.20 in 10.0 mi SE 10.4 mph - N/A   Clear
1:55 AM 44.6 °F 38.8 °F 35.6 °F 71% 30.20 in 10.0 mi SSE 11.5 mph - N/A   Clear
2:15 AM 44.6 °F 38.8 °F 35.6 °F 71% 30.20 in 10.0 mi SE 11.5 mph - N/A   Clear
2:35 AM 44.6 °F 39.2 °F 35.6 °F 71% 30.20 in 10.0 mi SE 10.4 mph - N/A   Clear
2:55 AM 44.6 °F 39.7 °F 35.6 °F 71% 30.20 in 10.0 mi SE 9.2 mph - N/A   Clear
3:15 AM 44.6 °F 38.1 °F 35.6 °F 71% 30.18 in 10.0 mi SE 13.8 mph - N/A   Clear
3:35 AM 44.6 °F 38.8 °F 35.6 °F 71% 30.20 in 10.0 mi SSE 11.5 mph 18.4 mph N/A   Clear
3:55 AM 44.6 °F 37.4 °F 35.6 °F 71% 30.18 in 10.0 mi SE 16.1 mph 19.6 mph N/A   Clear
4:15 AM 44.6 °F 38.4 °F 35.6 °F 71% 30.18 in 10.0 mi SE 12.7 mph - N/A   Clear
4:35 AM 44.6 °F 39.2 °F 35.6 °F 71% 30.21 in 10.0 mi SSE 10.4 mph - N/A   Clear
4:55 AM 44.6 °F 39.2 °F 35.6 °F 71% 30.20 in 10.0 mi SE 10.4 mph - N/A   Clear
5:15 AM 44.6 °F 39.2 °F 35.6 °F 71% 30.20 in 10.0 mi SE 10.4 mph - N/A   Clear
5:35 AM 44.6 °F 38.4 °F 35.6 °F 71% 30.21 in 10.0 mi SSE 12.7 mph - N/A   Clear
5:55 AM 44.6 °F 38.4 °F 35.6 °F 71% 30.19 in 10.0 mi SE 12.7 mph - N/A   Clear
6:15 AM 44.6 °F 39.2 °F 35.6 °F 71% 30.20 in 10.0 mi SE 10.4 mph - N/A   Clear
6:35 AM 44.6 °F 38.4 °F 35.6 °F 71% 30.20 in 10.0 mi SSE 12.7 mph - N/A   Clear
6:55 AM 42.8 °F 37.0 °F 35.6 °F 76% 30.19 in 10.0 mi SSE 10.4 mph - N/A   Clear
7:15 AM 44.6 °F 38.8 °F 35.6 °F 71% 30.20 in 10.0 mi SE 11.5 mph 16.1 mph N/A   Clear
7:35 AM 44.6 °F 38.8 °F 35.6 °F 71% 30.20 in 10.0 mi SE 11.5 mph - N/A   Clear
7:55 AM 44.6 °F 38.8 °F 35.6 °F 71% 30.20 in 10.0 mi SE 11.5 mph 18.4 mph N/A   Clear
8:15 AM 44.6 °F 37.8 °F 35.6 °F 71% 30.21 in 10.0 mi SE 15.0 mph - N/A   Clear
8:35 AM 44.6 °F 38.4 °F 35.6 °F 71% 30.20 in 10.0 mi SSE 12.7 mph 18.4 mph N/A   Clear
8:55 AM 46.4 °F 39.8 °F 35.6 °F 66% 30.20 in 10.0 mi SSE 16.1 mph 20.7 mph N/A   Clear
9:15 AM 48.2 °F - 35.6 °F 62% 30.19 in 10.0 mi SSE 15.0 mph 21.9 mph N/A   Clear
9:35 AM 50.0 °F - 37.4 °F 62% 30.20 in 10.0 mi South 17.3 mph 24.2 mph N/A   Clear
9:55 AM 51.8 °F - 35.6 °F 54% 30.20 in 10.0 mi SSE 15.0 mph 21.9 mph N/A   Clear
10:15 AM 51.8 °F - 37.4 °F 58% 30.18 in 10.0 mi SSE 16.1 mph - N/A   Clear
10:35 AM 51.8 °F - 37.4 °F 58% 30.19 in 10.0 mi South 17.3 mph - N/A   Clear
10:55 AM 53.6 °F - 37.4 °F 54% 30.18 in 10.0 mi South 11.5 mph 21.9 mph N/A   Clear
11:15 AM 53.6 °F - 37.4 °F 54% 30.18 in 10.0 mi South 18.4 mph 28.8 mph N/A   Scattered Clouds
11:35 AM 55.4 °F - 37.4 °F 51% 30.17 in 10.0 mi South 16.1 mph 25.3 mph N/A   Scattered Clouds
11:55 AM 53.6 °F - 37.4 °F 54% 30.17 in 10.0 mi South 17.3 mph 25.3 mph N/A   Clear
12:15 PM 53.6 °F - 39.2 °F 58% 30.16 in 10.0 mi South 19.6 mph 25.3 mph N/A   Clear
12:35 PM 53.6 °F - 39.2 °F 58% 30.16 in 10.0 mi South 19.6 mph 27.6 mph N/A   Clear
12:55 PM 53.6 °F - 39.2 °F 58% 30.16 in 10.0 mi South 16.1 mph 27.6 mph N/A   Clear
1:15 PM 55.4 °F - 41.0 °F 58% 30.15 in 10.0 mi South 19.6 mph 25.3 mph N/A   Clear
1:35 PM 55.4 °F - 41.0 °F 58% 30.15 in 10.0 mi South 17.3 mph 24.2 mph N/A   Scattered Clouds
1:55 PM 55.4 °F - 41.0 °F 58% 30.15 in 10.0 mi South 19.6 mph 25.3 mph N/A   Mostly Cloudy
2:15 PM 55.4 °F - 41.0 °F 58% 30.14 in 10.0 mi South 18.4 mph 25.3 mph N/A   Overcast
2:35 PM 55.4 °F - 41.0 °F 58% 30.13 in 10.0 mi South 16.1 mph 26.5 mph N/A   Overcast
2:55 PM 53.6 °F - 41.0 °F 62% 30.13 in 10.0 mi South 18.4 mph 28.8 mph N/A   Overcast
3:15 PM 53.6 °F - 41.0 °F 62% 30.13 in 10.0 mi South 15.0 mph 24.2 mph N/A   Overcast
3:35 PM 53.6 °F - 41.0 °F 62% 30.13 in 10.0 mi South 18.4 mph 21.9 mph N/A   Overcast
3:55 PM 53.6 °F - 41.0 °F 62% 30.14 in 10.0 mi South 16.1 mph 25.3 mph N/A   Mostly Cloudy
4:15 PM 53.6 °F - 41.0 °F 62% 30.14 in 10.0 mi South 16.1 mph - N/A   Scattered Clouds
4:35 PM 53.6 °F - 41.0 °F 62% 30.14 in 10.0 mi South 17.3 mph 20.7 mph N/A   Clear
4:55 PM 53.6 °F - 41.0 °F 62% 30.14 in 10.0 mi South 15.0 mph - N/A   Mostly Cloudy
5:15 PM 53.6 °F - 41.0 °F 62% 30.15 in 10.0 mi South 15.0 mph - N/A   Overcast
5:35 PM 53.6 °F - 41.0 °F 62% 30.15 in 10.0 mi South 15.0 mph 21.9 mph N/A   Overcast
5:55 PM 53.6 °F - 42.8 °F 67% 30.16 in 10.0 mi South 15.0 mph 21.9 mph N/A   Overcast
6:15 PM 53.6 °F - 42.8 °F 67% 30.16 in 10.0 mi South 16.1 mph 23.0 mph N/A   Overcast
6:35 PM 53.6 °F - 42.8 °F 67% 30.18 in 10.0 mi South 15.0 mph - N/A   Overcast
6:55 PM 51.8 °F - 42.8 °F 71% 30.19 in 10.0 mi South 12.7 mph - N/A   Scattered Clouds
7:15 PM 50.0 °F - 42.8 °F 76% 30.19 in 10.0 mi South 12.7 mph - N/A   Clear
7:35 PM 50.0 °F - 41.0 °F 71% 30.20 in 10.0 mi South 10.4 mph - N/A   Scattered Clouds
7:55 PM 50.0 °F - 42.8 °F 76% 30.20 in 10.0 mi South 10.4 mph - N/A   Mostly Cloudy
8:15 PM 50.0 °F - 41.0 °F 71% 30.21 in 10.0 mi South 10.4 mph - N/A   Mostly Cloudy
8:35 PM 48.2 °F - 41.0 °F 76% 30.21 in 10.0 mi South 9.2 mph - N/A   Mostly Cloudy
8:55 PM 48.2 °F - 42.8 °F 82% 30.22 in 10.0 mi South 9.2 mph - N/A   Mostly Cloudy
9:15 PM 50.0 °F - 42.8 °F 76% 30.22 in 10.0 mi South 8.1 mph - N/A   Overcast
9:35 PM 50.0 °F - 42.8 °F 76% 30.23 in 10.0 mi South 10.4 mph - N/A   Overcast
9:55 PM 50.0 °F - 42.8 °F 76% 30.22 in 10.0 mi South 10.4 mph - N/A   Overcast
10:15 PM 50.0 °F - 42.8 °F 76% 30.22 in 10.0 mi South 12.7 mph - N/A   Overcast
10:35 PM 50.0 °F - 42.8 °F 76% 30.22 in 10.0 mi South 15.0 mph - N/A   Overcast
10:55 PM 51.8 °F - 42.8 °F 71% 30.22 in 10.0 mi South 13.8 mph - N/A   Overcast
11:15 PM 51.8 °F - 42.8 °F 71% 30.22 in 10.0 mi South 12.7 mph 19.6 mph N/A   Overcast
11:35 PM 51.8 °F - 42.8 °F 71% 30.22 in 10.0 mi South 11.5 mph - N/A   Overcast
11:55 PM 51.8 °F - 42.8 °F 71% 30.23 in 10.0 mi South 10.4 mph 17.3 mph N/A   Overcast